GFSGL_con_3kmhel_000.txt.gz
Helicity
184 172 132 99 71 81 112 128 121 120 147 161 174 178 202 224 127 89 49 19 35 57 54 19 19 19 36 48 49 35 30 45 55 71 75 75 91 103 110 102 81 68 63
160 108 81 49 81 108 126 131 131 134 138 175 224 219 127 69 68 78 85 77 82 81 89 85 72 69 76 73 82 76 82 83 90 79 84 97 91 90 77 70 72 74 83
88 71 99 75 86 105 124 117 113 139 160 136 115 95 93 92 82 80 82 90 97 104 110 109 98 98 94 90 89 90 89 86 85 85 74 85 85 85 73 64 66 71 74
88 115 109 104 129 124 115 82 69 87 98 109 100 75 87 82 76 74 87 100 97 99 98 94 96 92 83 77 77 78 77 80 81 86 81 77 88 85 83 72 65 62 60
127 125 122 123 116 93 80 90 107 118 95 84 77 78 72 69 103 121 89 106 92 87 82 74 75 92 101 78 79 71 73 75 80 89 96 93 96 94 89 88 83 85 88
117 111 118 130 129 131 101 85 103 90 84 73 77 73 69 80 189 140 117 88 82 70 67 64 66 62 49 48 58 59 77 93 92 108 120 111 81 115 127 103 87 87 67
120 119 150 167 152 137 102 93 85 75 69 69 74 84 84 75 173 112 97 75 70 59 56 59 53 54 50 43 57 67 61 62 88 82 97 108 100 103 105 107 113 106 91
124 135 175 188 145 113 89 73 62 67 67 72 85 85 75 75 136 100 75 59 63 54 48 39 36 30 37 81 63 63 58 58 65 85 74 71 76 75 83 76 72 72 83
102 150 192 158 113 89 64 64 66 72 74 85 90 85 76 85 127 101 82 76 65 52 40 33 43 30 21 40 45 42 45 43 53 62 55 41 35 37 37 77 83 86 82
135 101 117 115 97 64 62 65 72 76 85 109 102 88 99 84 105 98 85 76 54 43 35 24 8 3 15 23 32 43 34 7 19 61 61 47 41 30 25 42 49 58 65
109 102 86 106 82 63 70 73 80 85 96 133 108 100 76 109 71 65 64 69 59 36 12 7 7 47 78 52 36 -3 -30 -18 -29 -41 -32 -40 -34 -2 36 63 70 86 61
105 91 92 93 79 77 74 78 80 88 129 131 119 112 98 94 62 65 44 38 31 -2 -11 -13 17 33 -10 1 -18 -7 -1 -10 -18 -4 4 1 -6 -5 6 40 50 53 61
91 90 86 89 80 76 78 78 87 105 152 129 117 106 78 78 65 49 28 13 -0 -11 -19 -27 -49 -21 -14 -29 -35 4 11 -13 -8 -2 3 5 -1 -7 -1 19 28 31 28
89 86 85 83 97 72 86 89 98 138 148 119 116 97 85 69 65 45 -26 -16 1 -22 -14 -28 -22 -12 -13 -15 1 -0 3 5 7 9 4 7 14 26 40 42 32 25 36
98 87 84 91 87 79 83 100 99 127 157 128 113 99 93 77 57 -9 -10 -2 -12 -3 5 -13 -4 3 17 21 8 3 3 10 20 15 4 -1 -0 -0 9 11 21 23 26
84 72 92 88 91 90 81 71 173 164 154 129 117 113 91 71 -12 3 9 10 4 7 -11 2 12 19 27 26 8 -7 -8 2 20 37 24 1 -6 -13 -15 14 21 16 20
62 76 80 83 83 85 74 68 75 122 170 138 123 99 80 -30 -6 5 12 11 3 13 8 15 22 28 29 25 24 15 -6 -3 16 18 27 -10 -22 -14 -19 -15 8 26 33
48 73 66 73 78 77 69 66 75 92 93 96 138 114 80 -32 -10 5 13 -0 -11 -5 4 13 26 36 40 30 25 24 26 6 -14 -17 -1 3 -15 -22 -25 -38 -38 -33 -11
36 49 59 73 76 71 61 60 70 76 84 97 89 100 63 -42 -30 -11 1 -13 -11 -7 3 5 11 35 35 22 20 22 25 16 9 -1 -8 4 11 -3 -16 -31 -40 -36 -20
34 61 56 70 71 66 59 59 65 67 71 91 86 78 -22 -56 -36 -17 -14 -9 -7 -7 -2 1 7 22 22 21 23 21 16 15 16 13 5 -4 7 -0 -4 -4 -15 -20 -20
45 49 66 64 70 66 58 55 59 63 65 74 86 82 16 -77 -38 -22 -11 -3 4 6 5 4 8 16 14 12 10 11 12 9 4 8 12 8 -0 -4 -3 -6 -0 -2 1
44 59 61 72 68 63 57 52 54 59 64 64 74 82 23 -48 -57 -35 -15 -3 10 15 21 25 23 21 18 13 10 11 11 13 14 15 16 15 7 4 -4 -6 -1 5 8
51 58 63 74 67 59 52 53 53 56 64 68 63 61 41 -32 -48 -50 -27 -15 4 17 27 37 44 44 34 20 15 11 14 20 20 26 29 25 14 9 2 3 4 4 5
46 54 61 78 65 55 57 56 58 63 60 60 64 60 52 24 -35 -41 -34 -24 -13 8 19 28 34 45 40 32 23 19 18 23 22 20 21 19 15 15 11 12 10 12 8
39 51 63 66 60 56 59 62 61 64 64 60 61 61 56 41 14 -21 -23 -24 -21 -10 5 10 23 34 35 33 32 34 32 35 28 26 9 14 14 16 18 17 15 18 19
41 43 48 51 53 60 61 64 60 60 66 66 62 61 58 48 37 13 1 -11 -14 -13 -7 -2 7 21 26 29 35 33 30 31 28 33 18 17 20 23 19 23 26 23 28

GFSGL_con_3kmhel_003.txt.gz
Helicity
222 196 137 136 107 112 132 167 229 186 137 162 193 198 198 209 138 105 115 97 110 106 95 86 83 75 80 62 56 55 55 48 63 77 86 72 81 85 106 110 88 87 66
117 122 121 153 132 95 182 238 181 150 159 138 120 133 86 95 89 99 102 100 85 102 116 130 128 114 136 123 106 82 69 70 93 87 95 120 139 101 83 81 77 61 68
152 142 146 138 120 178 189 126 86 95 92 74 87 71 66 80 66 67 75 70 67 74 93 102 131 145 133 123 123 123 111 99 105 92 80 76 84 90 103 94 95 83 76
115 105 126 147 130 112 106 105 126 117 109 100 86 70 75 76 76 86 120 124 92 77 80 79 91 82 85 96 101 100 106 115 92 81 74 69 68 65 86 98 101 101 100
117 119 140 127 91 124 161 143 121 109 103 84 74 74 75 79 120 179 140 101 88 84 97 88 67 68 139 96 82 72 77 89 83 81 74 72 79 82 75 69 87 94 100
146 148 160 134 167 141 149 129 115 96 83 83 76 69 77 71 180 173 128 98 70 61 62 70 81 79 67 59 42 34 77 74 82 94 83 96 123 133 149 141 129 122 103
108 138 132 230 159 170 146 120 97 89 72 67 64 73 107 94 206 169 140 102 96 77 63 63 62 63 74 57 36 34 29 35 78 74 83 84 90 96 104 100 108 107 107
124 160 167 215 181 141 115 84 94 64 71 74 94 130 114 105 195 194 145 88 93 73 62 61 63 49 49 80 81 78 62 53 52 58 50 43 58 65 80 92 101 105 110
112 94 134 162 97 125 113 88 60 61 68 101 144 134 120 114 110 151 98 88 78 56 49 49 55 49 46 51 42 28 27 31 36 31 33 22 22 31 53 74 86 89 76
158 156 143 115 135 81 87 63 53 57 89 172 159 137 112 95 113 100 93 91 69 64 41 30 22 18 19 20 8 3 1 19 39 42 41 35 42 42 33 56 67 65 55
155 217 124 117 100 79 62 48 55 68 122 181 141 126 96 115 108 118 100 87 78 63 16 14 30 112 97 59 37 10 5 18 13 -14 -19 -14 2 24 44 45 61 80 73
163 191 118 96 90 74 44 51 74 83 130 143 136 127 111 120 129 127 75 43 26 -14 -19 -19 10 1 -28 -27 -23 -4 11 -3 -14 -8 -16 -9 -6 -11 -20 0 37 61 75
188 161 112 84 88 57 99 79 87 106 147 125 117 130 115 114 94 93 36 -10 -9 -14 -26 -27 -30 -24 -13 -9 -29 -18 9 18 6 -3 0 1 -9 -10 -12 -20 -18 20 39
68 95 108 115 108 82 87 85 118 130 109 104 131 118 114 97 87 32 -6 -4 -3 -16 -13 2 -30 -11 7 10 -4 5 10 2 7 15 9 9 10 8 11 36 32 21 27
96 76 91 74 81 82 72 129 108 141 153 125 123 111 117 101 15 -14 -4 2 -1 -2 23 -14 -12 -1 28 20 13 11 9 4 6 7 12 8 -2 -9 0 -3 -1 1 11
67 78 74 74 72 75 82 93 147 125 131 140 145 117 112 87 -17 -2 1 7 -1 15 4 -2 5 19 35 34 25 15 6 8 8 21 19 9 4 -9 9 13 12 10 -2
78 51 53 56 67 82 93 94 76 112 111 160 157 99 121 91 -27 -8 2 11 -5 6 -2 2 12 28 34 19 8 15 19 16 28 24 23 12 3 -6 11 -15 -27 -24 12
46 51 51 53 75 86 94 91 77 74 64 91 157 145 136 98 -50 -28 -4 -3 -18 -19 -13 -4 3 28 34 22 7 22 37 22 9 15 19 19 26 27 -8 -10 -22 -29 -23
67 49 54 59 74 75 78 80 68 65 63 69 76 109 104 35 -44 -39 -11 -16 -17 -19 -14 -8 1 26 24 10 15 17 28 14 18 15 10 31 33 30 14 9 11 -7 -9
68 88 54 64 66 69 78 81 68 63 58 67 70 82 80 16 -63 -59 -27 -20 -18 -13 -10 -5 2 13 11 13 13 14 18 6 10 21 28 23 31 23 23 23 20 17 13
69 73 77 61 66 77 71 70 69 64 58 61 73 121 92 48 -50 -78 -54 -26 -22 -12 -4 1 2 10 13 11 12 14 17 16 20 16 22 34 24 16 18 14 19 14 18
63 61 68 68 76 78 71 68 75 67 60 60 66 93 105 64 8 -51 -66 -39 -30 -21 -9 2 11 19 24 20 20 18 20 23 25 28 32 44 27 22 24 14 15 14 7
62 56 58 65 77 70 60 66 73 77 74 65 66 64 71 73 60 0 -39 -37 -34 -26 -10 -2 7 23 27 22 18 19 24 29 29 28 31 40 35 30 26 23 22 24 24
57 50 49 60 72 62 56 65 71 81 81 69 66 70 71 69 64 54 26 -9 -28 -28 -16 -9 -2 11 23 26 22 19 19 19 16 21 27 26 28 33 28 26 27 27 27
54 45 48 52 52 53 53 58 67 75 82 84 73 75 72 74 65 58 48 26 1 -20 -13 -16 -10 -3 9 16 30 30 25 22 17 20 16 21 29 32 27 26 27 23 30
59 39 41 42 40 45 56 59 65 72 77 86 83 78 77 73 68 64 54 45 25 10 3 -1 -7 -5 -3 1 22 26 29 30 25 27 21 23 28 29 29 29 35 28 33

GFSGL_con_3kmhel_006.txt.gz
Helicity
389 287 170 146 145 152 169 233 234 181 155 128 109 100 110 111 106 85 77 88 97 107 102 98 93 68 96 98 90 98 114 113 71 32 52 35 31 35 53 74 94 114 107
194 195 158 160 186 199 199 196 158 80 53 90 74 91 112 111 104 52 78 68 80 87 90 96 71 59 49 78 97 119 136 135 109 52 17 22 17 41 53 57 73 64 83
160 155 155 180 221 204 136 138 117 112 114 126 145 126 107 97 91 93 102 136 175 144 109 107 122 81 81 84 79 87 113 137 138 121 74 57 41 23 43 80 112 88 87
142 131 154 232 261 152 135 175 194 148 143 130 124 116 113 106 94 164 161 134 108 87 63 64 50 86 80 69 55 89 92 82 62 65 63 64 42 36 33 42 50 57 81
113 129 169 253 288 234 273 236 214 161 148 154 120 101 87 90 181 159 148 120 97 93 84 66 67 62 83 92 71 78 93 72 44 3 -0 34 60 51 57 69 87 97 125
152 149 193 213 154 344 237 213 204 179 181 144 125 114 112 152 226 222 177 117 102 96 73 53 79 75 77 99 77 27 66 79 48 60 52 49 48 64 63 75 92 104 101
147 202 285 266 169 177 134 189 232 158 165 142 121 128 204 222 255 227 172 110 77 78 80 91 79 82 81 82 97 144 99 68 67 57 39 42 41 33 10 6 39 87 97
60 141 181 184 169 73 228 214 157 125 159 123 141 192 218 214 194 153 177 125 99 72 82 65 52 44 49 66 57 38 43 43 40 37 27 41 63 64 82 82 83 82 78
53 195 115 160 72 194 194 184 96 145 125 170 175 180 161 141 118 164 127 138 105 79 73 66 55 49 35 52 45 13 -1 6 24 17 15 21 26 28 46 72 65 68 60
56 114 175 189 79 167 138 150 166 121 160 176 162 108 93 143 142 152 174 152 112 83 55 32 15 36 108 99 67 29 1 3 13 3 -0 19 29 27 34 69 92 106 97
154 132 134 120 79 121 147 170 139 155 163 178 144 107 139 127 179 142 164 138 97 65 61 41 34 34 1 -9 -19 -43 -43 -22 -18 -15 -5 5 9 16 35 52 80 111 87
113 133 97 66 64 122 169 163 145 143 214 176 105 136 152 171 154 165 156 62 13 42 34 15 -53 -24 -28 -16 -24 -27 -21 -20 -8 5 15 34 30 39 34 6 -8 24 82
127 109 96 97 106 154 111 92 114 198 176 112 126 128 139 129 129 153 30 -8 15 40 44 16 40 -18 -4 -8 -7 -5 5 15 43 3 8 8 -8 -6 -2 -9 2 6 -4
154 125 94 101 112 89 98 104 160 158 130 123 121 132 137 114 126 81 45 42 28 47 37 55 -15 -17 24 70 -26 -5 11 2 7 14 3 23 21 17 18 2 14 33 22
130 110 103 104 82 76 80 111 132 135 127 118 126 137 137 122 112 29 32 39 42 43 48 6 -19 11 58 1 -2 8 10 1 -2 5 25 25 14 8 15 16 13 -3 1
119 115 92 75 73 61 76 95 127 115 97 111 121 114 126 100 82 -21 -5 -1 7 12 7 -23 -7 12 21 26 -0 14 31 10 16 27 19 9 18 29 37 50 41 4 25
130 95 76 73 75 82 92 103 88 95 84 112 115 91 97 129 90 -31 -20 -2 8 -22 -29 -16 -23 -4 23 32 8 20 46 4 17 55 25 23 25 48 51 15 27 1 -7
120 76 91 79 70 76 78 82 88 88 82 85 117 109 148 116 39 -11 -30 1 -22 -16 -37 -25 -30 -3 4 -2 5 19 55 -12 2 34 53 65 55 66 18 13 26 32 37
99 129 129 75 79 79 76 82 84 81 77 78 90 125 157 69 56 41 -18 -26 -29 -26 -25 -21 -14 2 1 -6 -1 9 28 2 -9 10 42 100 81 37 20 18 23 41 40
80 174 122 77 85 75 80 80 80 80 80 83 82 115 115 65 81 38 -22 -36 -40 -31 -21 -9 -2 -1 -2 -3 -4 5 13 -2 -1 10 34 75 92 49 42 18 29 32 32
88 136 118 98 82 84 83 80 79 89 90 89 88 132 113 81 75 75 13 -27 -47 -41 -28 -14 -6 -3 -2 9 4 4 6 -0 6 16 34 67 83 34 52 13 21 23 14
117 97 94 83 81 86 86 73 73 90 99 99 99 110 115 93 105 87 82 40 -20 -27 -24 -20 -13 -0 6 14 17 14 11 11 17 26 32 62 69 35 55 33 9 7 17
95 88 79 69 71 97 78 66 71 78 90 110 105 104 98 100 112 109 88 83 50 -1 -6 -14 -20 -10 -3 7 14 15 18 23 25 26 25 55 56 25 41 35 31 27 20
89 94 72 62 60 82 78 64 73 76 85 102 109 108 105 108 104 105 105 88 88 54 28 14 -15 -13 -10 -6 5 15 19 14 16 20 23 47 28 22 28 33 19 62 19
90 99 79 64 62 61 66 70 77 78 79 83 107 103 107 106 104 103 115 109 98 75 59 40 9 3 -7 -13 6 7 10 23 25 23 22 34 24 25 31 41 27 57 27
155 120 85 61 57 51 57 66 82 78 80 85 92 100 101 120 123 113 127 127 111 102 64 70 38 16 -1 -5 27 9 10 13 18 27 28 19 23 28 27 45 42 43 46

GFSGL_con_3kmhel_009.txt.gz
Helicity
188 120 106 117 210 197 183 226 218 135 116 36 7 39 50 61 60 71 82 91 89 79 87 93 89 101 85 77 57 -2 61 76 99 69 64 59 34 12 25 -16 44 135 156
89 87 124 199 265 173 215 264 291 144 89 78 115 103 84 86 77 70 56 92 103 91 79 59 30 10 19 36 57 64 62 31 44 81 49 49 78 71 27 43 25 45 60
122 162 196 235 224 167 247 261 289 186 141 188 176 120 101 95 81 106 122 113 96 73 47 31 29 32 35 50 69 57 62 85 77 45 -7 -8 1 18 31 0 43 36 18
145 179 158 154 170 238 441 395 243 152 159 197 169 145 145 121 154 158 167 151 113 83 53 55 45 41 52 70 75 77 57 73 69 37 4 -14 -49 -41 -24 -43 -29 0 51
118 144 193 212 262 282 293 360 225 60 167 187 172 148 143 189 189 199 175 137 95 73 60 37 21 31 58 86 122 120 114 89 40 43 5 -16 -30 -50 -23 -20 -17 27 87
132 119 123 163 161 136 118 176 68 154 175 189 165 145 195 192 196 174 156 136 114 96 89 62 43 54 83 124 127 152 154 102 45 36 12 -5 4 12 15 -5 -43 -26 -8
107 125 81 50 21 42 77 55 188 150 150 130 187 176 166 154 169 156 173 178 132 117 97 76 73 72 77 78 70 59 61 89 75 24 -11 -10 9 36 40 38 38 -4 -16
139 109 54 62 33 75 106 113 105 124 146 194 161 166 157 120 102 128 162 154 140 105 92 64 63 64 68 63 59 51 29 30 40 5 -17 -5 1 16 24 42 60 65 38
182 153 104 81 96 148 138 49 133 149 196 163 158 135 84 42 90 192 155 137 136 107 74 56 45 38 27 59 72 44 18 27 34 17 18 32 33 30 32 47 58 40 31
229 179 130 77 91 95 55 42 129 177 171 171 129 77 47 93 186 174 172 179 131 90 68 59 31 34 39 15 -7 -29 -19 -15 -20 -22 -13 -8 -4 -10 4 29 52 39 73
216 149 104 97 120 111 95 136 120 153 170 126 100 64 77 133 135 179 176 135 88 89 88 81 54 1 12 -24 -15 -39 -32 -27 -25 -30 -19 -8 2 12 24 34 47 77 67
164 113 126 110 112 120 115 114 130 123 103 90 66 23 54 96 116 129 106 70 60 91 90 78 81 14 0 -3 -5 7 -13 -11 -13 16 27 43 47 45 42 48 34 42 71
99 132 125 106 118 114 115 90 81 75 74 60 46 52 68 82 96 68 67 40 39 74 79 41 10 -8 16 54 32 2 2 14 17 16 20 23 20 29 34 30 17 16 24
130 117 99 107 100 76 62 62 74 68 64 57 60 73 80 86 95 85 70 67 49 59 43 36 19 40 66 31 1 10 13 5 -1 4 26 47 49 37 31 23 13 12 -12
145 95 97 92 80 67 78 84 58 45 53 63 73 90 100 76 85 52 5 9 42 52 34 33 6 7 7 9 1 16 35 18 21 35 36 36 38 34 45 60 70 11 -23
145 93 81 84 73 83 97 92 68 56 63 80 88 107 78 70 32 76 27 -10 23 23 -2 -33 -38 -9 9 26 20 45 55 7 27 60 55 40 38 63 73 52 29 22 2
126 88 76 71 72 81 71 49 23 57 57 50 82 74 77 59 50 94 45 0 1 7 -24 -33 -37 -19 7 12 13 32 62 9 13 39 52 75 82 71 48 15 20 17 24
112 84 100 108 84 70 66 60 65 64 62 58 49 100 109 63 59 78 69 16 -45 -22 -29 -29 -18 -15 -4 -1 -7 0 19 2 6 20 63 104 122 65 32 27 33 29 47
85 91 144 132 72 61 68 67 67 62 64 70 75 117 106 81 62 61 75 59 -24 -54 -44 -25 -13 -9 -2 -6 -12 -11 -6 -7 -3 11 44 87 128 94 65 36 30 39 26
66 88 119 105 74 68 72 77 64 62 66 67 79 99 104 103 69 49 59 70 40 -42 -51 -40 -20 -5 -2 4 1 -7 -10 -3 6 15 39 62 87 96 88 41 27 27 18
90 115 105 99 88 82 85 76 66 55 71 78 81 109 118 120 90 80 65 68 68 35 -33 -41 -32 -20 -19 -2 10 11 -1 0 16 24 38 58 63 86 72 65 36 8 7
113 100 106 94 88 81 83 93 65 60 71 88 90 104 116 128 114 111 95 70 70 72 61 1 -30 -27 -20 -10 2 7 17 14 19 29 37 50 58 78 44 45 37 30 23
111 86 84 87 76 69 83 76 63 71 70 81 96 97 114 119 120 130 124 87 87 79 69 74 11 -17 -21 -21 -13 -6 15 31 26 21 27 37 44 47 31 29 39 37 29
103 88 83 87 76 73 97 82 72 69 74 80 90 110 106 112 113 111 123 109 111 95 88 92 56 15 -7 -18 -14 -8 -11 -4 12 23 27 26 33 30 28 31 54 52 29
111 107 97 99 85 75 75 82 75 90 85 79 76 91 99 111 113 109 110 129 129 127 94 88 74 43 19 -6 11 -2 3 10 9 17 24 32 38 35 39 32 38 33 38
121 132 143 144 105 80 83 79 77 93 81 80 81 77 83 90 102 105 113 138 146 139 125 97 83 51 28 36 22 13 15 15 16 24 23 26 28 31 37 42 41 30 47

GFSGL_con_3kmhel_015.txt.gz
Helicity
107 100 104 117 117 113 146 165 212 276 278 285 190 112 144 105 86 68 68 68 131 134 141 142 122 113 108 100 92 85 91 112 127 96 75 35 32 46 62 77 63 74 40
121 121 113 85 76 85 102 141 191 212 218 208 164 86 106 84 86 88 93 138 143 146 142 140 120 115 119 105 92 86 97 114 144 123 106 105 68 72 87 66 64 83 83
115 94 72 66 73 91 102 125 167 194 219 184 139 95 84 89 102 127 142 164 162 153 145 137 135 136 132 116 100 95 98 101 117 132 120 129 105 92 79 81 84 68 74
94 108 99 52 77 87 81 75 123 155 132 134 113 121 112 102 143 172 189 170 168 152 149 151 156 152 146 130 113 101 101 104 101 114 112 113 118 85 73 65 68 52 71
113 99 59 61 63 83 91 74 83 104 105 113 142 143 88 128 156 160 171 162 153 147 149 152 152 142 95 100 112 106 100 100 103 126 101 89 108 103 82 62 43 17 9
85 88 82 96 115 111 80 59 63 99 125 212 66 148 151 157 130 162 145 149 143 142 145 147 147 102 95 73 63 56 66 83 94 107 82 80 84 86 82 64 52 24 -0
100 110 129 127 117 97 71 67 79 94 96 71 152 174 163 137 169 156 167 151 133 142 146 137 109 111 88 102 77 81 63 42 63 78 63 61 56 89 70 65 45 21 16
141 141 137 144 135 112 86 90 94 96 104 138 157 165 143 135 148 130 138 125 118 128 126 100 95 99 93 73 72 68 67 58 57 66 59 39 43 52 51 49 42 19 10
125 154 154 143 143 122 99 90 105 121 169 181 156 149 118 112 101 96 98 103 103 113 94 82 78 76 58 37 64 56 55 36 29 10 24 33 65 67 27 54 44 24 24
153 152 142 155 148 125 103 95 141 150 166 155 134 114 119 102 87 74 79 93 102 111 86 67 56 59 33 32 71 66 54 24 -3 -19 -28 8 19 12 19 26 19 20 22
144 152 154 149 139 120 112 126 147 181 170 138 116 101 101 87 61 69 64 78 89 111 81 67 81 40 34 40 47 52 16 -22 -27 -18 -17 -8 -2 2 -4 -4 8 30 34
141 154 163 163 151 143 134 147 155 151 149 107 90 71 78 65 54 56 59 51 56 100 74 69 74 32 33 28 43 29 13 8 -11 -12 -5 -0 4 6 5 4 5 13 30
133 144 189 179 138 130 133 140 146 141 111 77 71 78 79 63 66 53 44 46 54 79 58 38 27 22 40 54 36 35 35 17 1 -5 5 8 16 24 25 14 11 16 34
119 140 176 169 119 113 121 130 138 123 90 69 71 81 83 72 73 80 63 53 54 51 47 30 33 31 54 74 82 60 52 35 20 18 29 42 45 43 42 27 25 16 21
124 136 164 155 129 113 107 109 108 87 89 81 77 90 98 78 70 49 72 67 50 52 64 20 11 13 21 35 56 63 31 13 22 41 36 50 62 70 50 52 36 33 23
127 112 147 164 124 108 97 91 71 64 60 48 62 102 81 65 39 52 71 69 46 49 53 44 1 -1 4 9 -1 -41 -35 -15 11 40 49 56 64 68 45 44 32 28 29
122 117 146 135 120 123 112 103 86 71 78 68 67 68 77 72 54 67 77 72 57 54 47 34 10 -14 -14 -9 -8 -18 -36 -19 3 8 35 55 61 58 41 29 38 31 41
125 118 122 119 114 125 114 95 79 95 75 67 61 58 66 74 67 73 75 86 71 53 51 37 31 -15 -27 -20 -13 -11 -23 -29 -22 -9 9 42 57 54 47 45 28 28 36
126 128 117 114 108 117 105 94 86 88 74 69 57 59 70 75 72 84 100 103 92 73 65 50 29 27 -22 -34 -28 -22 -17 -8 -17 -10 -1 9 43 49 49 36 33 28 19
121 112 112 114 111 112 107 105 96 91 71 64 55 63 78 108 99 97 98 105 104 88 74 68 47 24 25 -18 -35 -32 -23 -14 -0 -3 7 12 19 22 32 43 33 18 13
121 132 120 118 119 119 111 106 91 86 78 71 60 65 85 110 97 103 96 101 105 105 96 89 72 62 40 31 16 -23 -28 -24 -17 -3 6 7 16 21 31 26 21 16 8
110 142 139 119 104 104 88 87 101 100 97 74 55 64 77 97 97 98 92 91 101 114 119 122 103 88 72 54 31 11 -14 -22 -21 -17 -6 7 7 12 23 27 28 18 13
112 123 143 103 103 92 82 90 96 96 95 84 67 70 82 83 90 91 87 82 94 103 111 135 130 99 89 77 64 44 20 -6 -15 -15 -12 -4 5 17 18 18 23 26 32
114 111 114 99 96 91 94 98 95 101 100 91 92 89 84 81 81 80 80 80 84 91 112 134 143 132 116 100 79 59 47 28 10 -5 -13 -8 -3 11 16 20 27 25 33
111 112 125 110 104 102 110 115 113 109 115 114 115 121 109 88 88 82 83 86 87 91 92 121 138 140 134 118 94 76 56 35 23 6 2 -8 -7 2 9 13 23 31 35
86 114 126 134 137 124 120 116 119 135 125 136 137 141 136 111 106 98 89 94 94 95 94 104 117 134 142 136 108 91 65 46 33 18 14 10 5 9 14 16 26 30 34